[[{"header":{"parameterUnit":"m.s-1","parameterCategory":1,"la1":30.2991,"la2":30.254,"lo1":-89.0895,"lo2":-89.0444,"dy":0.0017,"dx":0.0017,"nx":28,"ny":28,"refTime":"2024-08-24T09:00:00:Z","depth":0,"parameterNumber":2,"parameterNumberName":"U-component_of_WINDS"},"data":[0,0,0,0,0,0,0,0,0,0,0,0,0,0,0,0,0,0,0,0,0,0,0,0,0,0,0,0,0,0,0,0,0,0,0,0,0,0,0,0,0,0,0,0,0,0,0,0,0,0,0,0,0,0,0,0,0,0,-3.9889,-3.9889,0,-3.9888,-3.9888,-3.9888,-3.9713,-3.9709,-3.9704,-3.97,-3.9702,-3.9707,-3.9711,0,0,0,0,0,0,0,0,0,0,0,0,0,-3.9741,-3.9745,-3.9889,-3.9889,-3.9889,-3.9888,-3.9888,-3.9888,-3.9714,-3.9709,-3.9703,-3.9698,-3.9701,-3.9706,-3.9711,0,0,0,0,0,0,0,0,0,0,0,0,0,-3.9779,-3.9746,-3.9889,-3.9802,-3.9794,-3.9888,-3.9888,-3.9888,-3.9715,-3.9708,-3.9702,-3.9695,-3.9699,-3.9706,-3.9712,-3.989,0,0,-3.9732,-3.9735,0,0,0,0,0,0,0,0,-3.9777,-3.9785,-3.9814,-3.9808,-3.9799,-3.9794,-3.9836,-3.9889,-3.9717,-3.9745,-3.97,-3.9692,-3.9738,-3.9741,-3.9756,-3.989,-3.989,-3.9732,-3.9736,-3.9739,-3.9741,0,0,0,0,0,0,0,-3.9775,-3.9784,-3.9888,-3.9815,-3.9806,-3.9763,-3.9761,-3.9846,-3.9781,-3.9742,-3.973,-3.9732,-3.9733,-3.9751,-3.9755,-3.989,-3.9732,-3.9738,-3.9742,-3.9745,-4.0169,-4.0176,0,0,0,0,0,0,-3.9784,-3.9783,-3.9888,-3.9888,-3.9771,-3.9772,-3.9769,-3.9802,-3.9779,-3.9769,-3.9738,-3.9724,-3.9743,-3.9748,-3.9755,-3.996,-3.9739,-3.9745,-3.9749,-4.0161,-4.017,-4.0178,0,0,0,0,0,0,-3.9782,-3.9795,-3.9888,-3.9832,-3.9841,-3.9781,-3.982,-3.9806,-3.9823,-3.9776,-3.9763,-3.9767,-3.9738,-3.9745,-3.9857,-3.9958,-3.9748,-3.9754,-4.0153,-4.0164,-4.0174,-4.0374,0,0,0,0,0,0,-3.9778,-3.9795,-3.9862,-3.9835,-3.9844,-3.9991,-3.9826,-3.9811,-3.9835,-3.9816,-3.98,-3.9791,-3.9733,-3.9848,-3.9864,-3.9963,-3.9759,-4.0143,-4.0158,-4.0171,-4.0358,-4.0391,-4.0418,0,0,0,0,0,-3.9773,-3.9919,-3.9866,-3.988,-3.9926,-3.9997,-4.0002,-3.9931,-3.9844,-3.991,-3.9879,-3.9792,-3.9945,-3.9861,-3.9877,-3.998,-4.0137,-4.0154,-4.017,-4.0345,-4.0384,-4.0418,0,0,0,0,0,0,-3.996,-3.9914,-3.9855,-3.9996,-4.0002,-3.9967,-4.0049,-3.9976,-4.0007,-3.9989,-3.9901,-3.9898,-4.0024,-4.0013,-3.9921,-4.015,-4.0025,-4.0046,-4.0153,-4.019,-4.022,-4.0219,-3.9765,0,0,0,0,0,-4.0018,-4.0078,-4.0035,-4.0163,-4.0169,-4.0109,-4.0137,-4.0082,-4.0085,-4.0087,-4.0064,-4.0071,-4.012,-4.0154,-4.0197,-4.0356,-4.035,-4.0435,-4.0465,-4.049,-4.0508,-4.0591,-4.0628,-4.0233,-4.0232,-4.0232,0,0,-4.0137,-4.0119,-4.0163,-4.02,-4.0198,-4.0263,-4.0112,-4.0188,-4.0235,-4.0098,-4.0201,-4.0186,-4.0187,-4.0323,-4.0382,-4.0318,-4.0616,-4.0511,-4.0531,-4.0536,-4.0612,-4.0649,-4.0683,-4.0244,-4.0242,-4.024,0,0,-4.0388,-4.0381,-4.0486,-4.0487,-4.0486,-4.0445,-4.0471,-4.0448,-4.0431,-4.0533,-4.0432,-4.0488,-4.0575,-4.058,-4.0594,-4.0847,-4.0767,-4.0864,-4.1021,-4.1102,-4.1133,-4.116,-4.125,-4.1283,-4.0883,-4.0883,-4.0883,0,-4.0537,-4.0629,-4.0551,-4.0632,-4.0652,-4.053,-4.0636,-4.0641,-4.0655,-4.0671,-4.0599,-4.0705,-4.0698,-4.0833,-4.0895,-4.0911,-4.0937,-4.0865,-4.1135,-4.1161,-4.1186,-4.127,-4.1304,-4.0895,-4.0893,-4.0892,-4.0891,0,-4.0812,-4.0879,-4.0964,-4.0979,-4.1008,-4.1102,-4.1038,-4.1077,-4.102,-4.0987,-4.1093,-4.108,-4.1117,-4.1145,-4.1091,-4.1273,-4.1233,-4.115,-4.1022,-4.1236,-4.1314,-4.1346,-4.0911,-4.0907,-4.0904,-4.0901,0,0,-4.118,-4.1149,-4.1182,-4.1187,-4.1176,-4.1226,-4.1315,-4.1351,-4.1386,-4.14,-4.1471,-4.1548,-4.147,-4.1487,-4.1432,-4.1504,-4.1704,-4.141,-4.1409,-4.1465,-4.1903,-4.1965,-4.2004,-4.1651,-4.1657,-4.1662,-4.1903,0,-4.1421,-4.157,-4.1501,-4.1658,-4.1718,-4.1603,-4.1681,-4.1683,-4.1655,-4.1702,-4.1671,-4.1727,-4.162,-4.1629,-4.1695,-4.1666,-4.179,-4.1647,-4.1718,-4.1721,-4.172,-4.2044,-4.211,-4.2338,-4.1933,-4.1938,-4.1941,0,-4.1723,-4.1748,-4.191,-4.1888,-4.191,-4.1981,-4.2008,-4.2055,-4.2055,-4.203,-4.2049,-4.1977,-4.2063,-4.1937,-4.2054,-4.1959,-4.1983,-4.1974,-4.1981,-4.1983,-4.1844,-4.2055,-4.2409,-4.2443,-4.1989,-4.1985,-4.1981,0,-4.1973,-4.2048,-4.2154,-4.2162,-4.2139,-4.2191,-4.2184,-4.2178,-4.2204,-4.2228,-4.2244,-4.2279,-4.2298,-4.2327,-4.2267,-4.2181,-4.2393,-4.2262,-4.2374,-4.2376,-4.2423,-4.2421,-4.2785,-4.2442,-4.2441,-4.2441,-4.244,0,-4.2249,-4.2353,-4.2266,-4.2331,-4.2444,-4.2365,-4.2479,-4.2459,-4.2455,-4.2515,-4.2419,-4.2478,-4.2395,-4.2447,-4.2401,-4.2505,-4.2514,-4.2496,-4.2483,-4.2504,-4.2506,-4.2518,-4.25,-4.245,-4.2448,-4.2446,-4.2444,0,-4.2547,-4.2493,-4.2601,-4.2571,-4.2566,-4.265,-4.2624,-4.2684,-4.2649,-4.2726,-4.274,-4.2686,-4.2741,-4.2684,-4.2736,-4.2705,-4.2844,-4.2808,-4.2844,-4.2833,-4.2948,-4.2938,-4.3332,-4.3379,-4.3008,-4.3011,-4.3014,0,-4.2726,-4.2803,-4.2781,-4.2813,-4.2812,-4.2867,-4.2892,-4.2818,-4.2848,-4.2855,-4.2914,-4.2961,-4.2993,-4.3087,-4.3053,-4.3092,-4.3056,-4.3191,-4.3061,-4.308,-4.3056,-4.3052,-4.3059,-4.3217,-4.3222,-4.3225,-4.3228,0,-4.305,-4.3019,-4.3059,-4.309,-4.3123,-4.3144,-4.3158,-4.3191,-4.3114,-4.3154,-4.3208,-4.3234,-4.3286,-4.3333,-4.3362,-4.3356,-4.328,-4.327,-4.3297,-4.332,-4.3336,-4.3328,-4.2915,-4.3261,-4.3257,-4.3255,-4.3253,-4.3252,-4.3292,-4.3355,-4.3348,-4.3396,-4.3399,-4.3414,-4.3468,-4.344,-4.3484,-4.3519,-4.3473,-4.3541,-4.3539,-4.357,-4.3573,-4.3625,-4.3568,-4.3608,-4.3618,-4.3629,-4.3646,-4.333,-4.363,-4.3629,-4.3628,-4.3628,-4.3627,0,-4.3609,-4.3599,-4.3644,-4.3666,-4.3704,-4.3629,-4.364,-4.3677,-4.3737,-4.3742,-4.3776,-4.3839,-4.3885,-4.3855,-4.3894,-4.3941,-4.3908,-4.3954,-4.3949,-4.3949,-4.3695,-4.3667,-4.3981,-4.3981,-4.3981,-4.3981,-4.398,-4.398,-4.3778,-4.3879,-4.3848,-4.395,-4.394,-4.4004,-4.4017,-4.4031,-4.4034,-4.4108,-4.4145,-4.4125,-4.4116,-4.4154,-4.4193,-4.4183,-4.4201,-4.426,-4.4238,-4.4002,-4.3967,-4.3933,-4.3906,-4.4265,-4.4266,-4.4486,-4.4488,-4.449]},{"header":{"parameterUnit":"m.s-1","parameterCategory":1,"la1":30.2991,"la2":30.254,"lo1":-89.0895,"lo2":-89.0444,"dy":0.0017,"dx":0.0017,"nx":28,"ny":28,"refTime":"2024-08-24T09:00:00:Z","depth":0,"parameterNumber":3,"parameterNumberName":"V-component_of_WINDS"},"data":[0,0,0,0,0,0,0,0,0,0,0,0,0,0,0,0,0,0,0,0,0,0,0,0,0,0,0,0,0,0,0,0,0,0,0,0,0,0,0,0,0,0,0,0,0,0,0,0,0,0,0,0,0,0,0,0,0,0,-1.5075,-1.5076,0,-1.5179,-1.518,-1.5181,-1.5247,-1.5247,-1.5248,-1.5248,-1.5353,-1.5355,-1.5357,0,0,0,0,0,0,0,0,0,0,0,0,0,-1.4929,-1.4932,-1.5074,-1.5076,-1.5077,-1.5179,-1.518,-1.5182,-1.5247,-1.5247,-1.5248,-1.5248,-1.5352,-1.5355,-1.5358,0,0,0,0,0,0,0,0,0,0,0,0,0,-1.5009,-1.4932,-1.5074,-1.5122,-1.5127,-1.5178,-1.518,-1.5182,-1.5247,-1.5247,-1.5248,-1.5248,-1.5351,-1.5354,-1.5358,-1.5369,0,0,-1.5369,-1.5371,0,0,0,0,0,0,0,0,-1.5004,-1.5014,-1.5114,-1.5119,-1.5125,-1.5201,-1.5167,-1.5245,-1.5247,-1.5201,-1.5248,-1.5249,-1.5301,-1.5309,-1.5327,-1.5374,-1.5379,-1.537,-1.5372,-1.5373,-1.5374,0,0,0,0,0,0,0,-1.4999,-1.501,-1.5116,-1.5115,-1.5122,-1.5137,-1.5149,-1.5182,-1.5247,-1.5205,-1.521,-1.5222,-1.5305,-1.5324,-1.533,-1.538,-1.5369,-1.5373,-1.5375,-1.5376,-1.5439,-1.5439,0,0,0,0,0,0,-1.4986,-1.5005,-1.5112,-1.5119,-1.5065,-1.5139,-1.5153,-1.5176,-1.5247,-1.5258,-1.5221,-1.5225,-1.5317,-1.5326,-1.5334,-1.5351,-1.5373,-1.5377,-1.5379,-1.544,-1.5439,-1.5439,0,0,0,0,0,0,-1.4982,-1.4995,-1.5108,-1.5063,-1.5079,-1.5141,-1.5166,-1.5177,-1.5197,-1.5259,-1.527,-1.5229,-1.5318,-1.5329,-1.536,-1.5355,-1.5378,-1.5382,-1.544,-1.544,-1.5439,-1.5384,0,0,0,0,0,0,-1.4978,-1.4993,-1.4999,-1.5063,-1.5081,-1.5133,-1.5166,-1.5179,-1.5203,-1.5208,-1.5269,-1.528,-1.5319,-1.5354,-1.5363,-1.5361,-1.5385,-1.5441,-1.544,-1.5439,-1.5387,-1.5382,-1.5377,0,0,0,0,0,-1.4973,-1.4979,-1.4999,-1.5011,-1.5089,-1.5132,-1.5143,-1.5188,-1.5202,-1.5208,-1.5248,-1.5278,-1.5355,-1.5357,-1.5368,-1.5366,-1.5442,-1.544,-1.5439,-1.5389,-1.5383,-1.5377,0,0,0,0,0,0,-1.4912,-1.4988,-1.5011,-1.5039,-1.5078,-1.5143,-1.5152,-1.5181,-1.5217,-1.522,-1.5275,-1.5288,-1.5313,-1.5343,-1.5344,-1.538,-1.5401,-1.5402,-1.5359,-1.5354,-1.5349,-1.5341,-1.5388,0,0,0,0,0,-1.4902,-1.4931,-1.4996,-1.5014,-1.5033,-1.5089,-1.5109,-1.5141,-1.5184,-1.5201,-1.5243,-1.5283,-1.5317,-1.5337,-1.5371,-1.5392,-1.5405,-1.5396,-1.5391,-1.5387,-1.5387,-1.5398,-1.5394,-1.5435,-1.5435,-1.5435,0,0,-1.4882,-1.4927,-1.4942,-1.5003,-1.5038,-1.5066,-1.5103,-1.5131,-1.5152,-1.5206,-1.5237,-1.5269,-1.5317,-1.5342,-1.5356,-1.5368,-1.5379,-1.5386,-1.5382,-1.5384,-1.5397,-1.5393,-1.5389,-1.5434,-1.5434,-1.5434,0,0,-1.4858,-1.4896,-1.4915,-1.4948,-1.5,-1.5037,-1.5042,-1.5102,-1.5125,-1.5158,-1.5198,-1.5224,-1.528,-1.5312,-1.5336,-1.5323,-1.5352,-1.5333,-1.5308,-1.5319,-1.5315,-1.5313,-1.5307,-1.5304,-1.5333,-1.5333,-1.5333,0,-1.4826,-1.487,-1.492,-1.4946,-1.4971,-1.5021,-1.504,-1.507,-1.513,-1.5146,-1.5159,-1.523,-1.5266,-1.5299,-1.5295,-1.5314,-1.5319,-1.5326,-1.5312,-1.531,-1.5308,-1.5303,-1.5301,-1.533,-1.533,-1.5331,-1.5331,0,-1.4827,-1.4857,-1.4866,-1.4922,-1.4949,-1.497,-1.5023,-1.5043,-1.5072,-1.5107,-1.5139,-1.5184,-1.5227,-1.5238,-1.5267,-1.5274,-1.528,-1.5302,-1.5325,-1.5301,-1.5297,-1.5295,-1.5326,-1.5327,-1.5328,-1.5329,0,0,-1.4768,-1.4852,-1.4854,-1.488,-1.4941,-1.4964,-1.4988,-1.5031,-1.5046,-1.5086,-1.5106,-1.5152,-1.5173,-1.5199,-1.5233,-1.5242,-1.5227,-1.5263,-1.5265,-1.5253,-1.5236,-1.5217,-1.5214,-1.5247,-1.5247,-1.5247,-1.5231,0,-1.4753,-1.4798,-1.4843,-1.4872,-1.4899,-1.4947,-1.4967,-1.5006,-1.5039,-1.5067,-1.5103,-1.5134,-1.516,-1.5176,-1.5188,-1.5226,-1.5224,-1.5228,-1.5264,-1.5265,-1.5249,-1.5213,-1.5194,-1.5177,-1.523,-1.523,-1.523,0,-1.4741,-1.4778,-1.4809,-1.4866,-1.4879,-1.4897,-1.4939,-1.4965,-1.5009,-1.5033,-1.5062,-1.5097,-1.5123,-1.5143,-1.5179,-1.5181,-1.5198,-1.5219,-1.522,-1.5224,-1.5245,-1.5214,-1.5173,-1.517,-1.5228,-1.5228,-1.5228,0,-1.4692,-1.475,-1.4776,-1.4797,-1.4865,-1.4876,-1.4904,-1.4949,-1.4972,-1.5008,-1.5023,-1.5062,-1.5083,-1.5112,-1.5156,-1.5167,-1.5186,-1.521,-1.5204,-1.5203,-1.5205,-1.5204,-1.5165,-1.5219,-1.5219,-1.5219,-1.5219,0,-1.4669,-1.4686,-1.4755,-1.4771,-1.4791,-1.4842,-1.486,-1.4893,-1.4933,-1.4955,-1.4999,-1.5018,-1.5076,-1.5102,-1.5137,-1.516,-1.5169,-1.5188,-1.5197,-1.5183,-1.518,-1.5194,-1.5196,-1.5218,-1.5218,-1.5219,-1.5219,0,-1.4618,-1.4666,-1.4697,-1.4758,-1.4774,-1.4785,-1.4837,-1.4854,-1.489,-1.4917,-1.4926,-1.4982,-1.5015,-1.5062,-1.5109,-1.5132,-1.5149,-1.5165,-1.5134,-1.5139,-1.513,-1.5129,-1.5097,-1.5094,-1.5151,-1.515,-1.515,0,-1.4599,-1.4613,-1.4676,-1.4694,-1.4721,-1.475,-1.4773,-1.4824,-1.4846,-1.4897,-1.4907,-1.4943,-1.4975,-1.5025,-1.5069,-1.5105,-1.512,-1.5106,-1.5126,-1.5111,-1.5118,-1.5115,-1.5116,-1.5101,-1.51,-1.5099,-1.5099,0,-1.456,-1.4583,-1.4615,-1.4654,-1.468,-1.4714,-1.4749,-1.4761,-1.482,-1.4842,-1.4876,-1.4901,-1.4949,-1.4984,-1.5026,-1.5054,-1.5085,-1.5092,-1.5093,-1.5078,-1.5059,-1.5067,-1.512,-1.5092,-1.5093,-1.5094,-1.5094,-1.5094,-1.4524,-1.4538,-1.4584,-1.4617,-1.4649,-1.4681,-1.4699,-1.4737,-1.4767,-1.481,-1.4838,-1.4871,-1.4914,-1.4973,-1.5,-1.5025,-1.5038,-1.5039,-1.5039,-1.5038,-1.5032,-1.5056,-1.5033,-1.5034,-1.5034,-1.5034,-1.5034,0,-1.4486,-1.4518,-1.4548,-1.4596,-1.4622,-1.465,-1.4691,-1.471,-1.4738,-1.4776,-1.4806,-1.4845,-1.4878,-1.4925,-1.4962,-1.4973,-1.4988,-1.4981,-1.498,-1.4985,-1.5019,-1.5015,-1.4968,-1.4968,-1.4968,-1.4968,-1.4968,-1.4968,-1.4469,-1.4493,-1.4521,-1.4562,-1.4594,-1.4626,-1.4646,-1.4675,-1.4706,-1.4747,-1.4775,-1.4806,-1.4847,-1.4887,-1.4919,-1.4931,-1.4942,-1.493,-1.4947,-1.4977,-1.4983,-1.4989,-1.4985,-1.4932,-1.4932,-1.491,-1.491,-1.491]}]]